Home   Weather   Woodbridge   Past weeks
Flag for USA

Past Weather in Woodbridge, North Carolina, USA — Yesterday and Last 2 Weeks

Now
20 °F

Clear.


Feels Like: 20 °F
Forecast: 42 / 19 °F
Wind: No wind

Location: Fayetteville Regional Airport

Current Time: Jan 22, 2019 at 3:31:30 am

Latest Report: Jan 22, 2019 at 1:53 am


Visibility: 10 mi

Pressure: 30.59 "Hg

Humidity: 74%

Dew Point: 13 °F

Location of WoodbridgeLocation

Past Weather in Woodbridge — Graph

°F

Woodbridge Temperature Yesterday

Maximum temperature yesterday: 35 °F (at 2:53 pm)
Minimum temperature yesterday: 21 °F (at 11:53 pm)
Average temperature yesterday: 28 °F

High & Low Weather Summary for the Past Weeks

 TemperatureHumidityPressure
High71 °F (Jan 8, 2:53 pm)97% (Jan 13, 5:53 am)30.59 "Hg (Jan 13, 5:53 am)
Low20 °F (Jan 22, 1:53 am)17% (Jan 9, 3:53 pm)29.44 "Hg (Jan 20, 4:53 am)
Average43 °F69%30.13 "Hg
* Reported Jan 7 1:53 am — Jan 22 1:53 am, Woodbridge. Weather by CustomWeather, © 2019

Note: Actual official high and low records may vary slightly from our data, if they occured in-between our weather recording intervals... More about our weather records

Advertising

Woodbridge Weather History for the Previous 24 Hours

Scroll right to see more
 ConditionsComfort  
Time TempWeatherWind HumidityBarometerVisibility
1:53 am
Tue, Jan 22
20 °FClear.No wind74%30.59 "Hg10 mi
12:53 am21 °FClear.No wind71%30.58 "Hg10 mi
11:53 pm
Mon, Jan 21
21 °FClear.No wind74%30.56 "Hg10 mi
10:53 pm23 °FClear.No wind55%30.55 "Hg10 mi
9:53 pm22 °FClear.No wind57%30.53 "Hg10 mi
8:53 pm26 °FClear.No wind40%30.52 "Hg10 mi
7:53 pm29 °FClear.3 mph30%30.51 "Hg10 mi
6:53 pm29 °FClear.3 mph30%30.49 "Hg10 mi
5:53 pm31 °FClear.9 mph26%30.47 "Hg10 mi
4:53 pm34 °FSunny.6 mph22%30.45 "Hg10 mi
3:53 pm35 °FSunny.9 mph20%30.43 "Hg10 mi
2:53 pm35 °FSunny.12 mph23%30.42 "Hg10 mi
1:53 pm33 °FSunny.13 mph23%30.40 "Hg10 mi
1:13 pm32 °FSunny.16 mph23%30.41 "Hg10 mi
12:53 pm32 °FSunny.12 mph24%30.41 "Hg10 mi
11:53 am30 °FSunny.12 mph26%30.42 "Hg10 mi
10:53 am28 °FSunny.14 mph28%30.41 "Hg10 mi
9:53 am26 °FSunny.12 mph32%30.40 "Hg10 mi
8:53 am25 °FSunny.14 mph38%30.36 "Hg10 mi
7:53 am23 °FSunny.10 mph44%30.33 "Hg10 mi
6:53 am23 °FClear.7 mph44%30.29 "Hg10 mi
5:53 am24 °FClear.14 mph42%30.25 "Hg10 mi
4:53 am25 °FClear.12 mph42%30.21 "Hg10 mi
3:53 am27 °FClear.15 mph35%30.19 "Hg10 mi
Weather by CustomWeather, © 2019

See weather overview